Regional Weather Roundup
Issued by NWS

Home | Current Version | Previous Version | Text Only | Print | Product List | Glossary On
Versions: 1 2 3 4 5 6 7 8 9 10 11 12 13 14 15 16 17 18 19 20 21 22 23 24 25 26 27 28 29 30 31 32 33 34 35 36 37 38 39 40 41 42 43 44 45 46 47 48 49 50
000
ASUS43 KOAX 151602
RWRNE

WEATHER ROUNDUP FOR NEBRASKA
NATIONAL WEATHER SERVICE OMAHA NE
1000 AM CST FRI DEC 15 2017

NOTES: SATELLITE DATA IS BEING USED TO AUGMENT CLOUD COVER ABOVE
       12000 FEET.
       "FAIR" INDICATES FEW OR NO CLOUDS BELOW 12,000 FEET WITH NO
       SIGNIFICANT WEATHER AND/OR OBSTRUCTIONS TO VISIBILITY.


NEZ001>004-019>022-054>056-151700-
NEBRASKA PANHANDLE

CITY           SKY/WX    TMP DP  RH WIND       PRES   REMARKS
SCOTTSBLUFF    CLOUDY    29  22  75 CALM      29.96S
ALLIANCE       SUNNY     37  22  54 W15       29.92S WCI  28
CHADRON        CLOUDY    31  19  61 CALM      29.92S
GORDON         FAIR      29  20  70 SW10      29.88F WCI  19
KIMBALL        CLOUDY    39  13  34 W21       29.98S WCI  29
SIDNEY         SUNNY     38  15  39 W21G26    29.97S WCI  28
$$

NEZ057>060-069>072-079>082-151700-
SOUTHWEST NEBRASKA

CITY           SKY/WX    TMP DP  RH WIND       PRES   REMARKS
NORTH PLATTE   SUNNY     27  20  75 W8        29.99F WCI  19
IMPERIAL       SUNNY     29  19  66 W14       30.00F WCI  18
LEXINGTON      SUNNY     30  22  72 W7        30.01S WCI  23
MCCOOK         SUNNY     26  19  74 W10       30.04S WCI  16
OGALLALA       SUNNY     28  21  74 W12       29.98R WCI  18
$$

NEZ005>010-023>029-035>040-094-151700-
NORTH CENTRAL NEBRASKA

CITY           SKY/WX    TMP DP  RH WIND       PRES   REMARKS
VALENTINE      HAZE      31  21  66 W13       29.89F VSB 3/4 WCI  21
AINSWORTH      SUNNY     29  23  78 W10       29.88F WCI  20
BROKEN BOW     SUNNY     30  22  72 W10       29.95F WCI  21
O`NEILL        CLOUDY    29  25  83 SW7       29.91F WCI  22
ORD            SUNNY     29  23  78 CALM      29.96S
THEDFORD       SUNNY     32  23  69 W10       29.93S WCI  24
$$

NEZ041-046>049-061>064-073>077-083>087-151700-
SOUTH CENTRAL NEBRASKA

CITY           SKY/WX    TMP DP  RH WIND       PRES   REMARKS
GRAND ISLAND   CLOUDY    30  23  75 SW18      30.02F WCI  18
AURORA         MOSUNNY   30  24  79 SW15      30.02S WCI  19
HASTINGS       SUNNY     28  21  75 SW13      30.04R WCI  17
HEBRON         SUNNY     32  27  83 SW9       30.09S WCI  24
HOLDREGE       SUNNY     28  22  78 W13       30.03R WCI  17
KEARNEY        SUNNY     28  20  71 SW13      30.02R WCI  17
$$

NEZ011>018-030>034-042>045-151700-
NORTHEAST NEBRASKA

CITY           SKY/WX    TMP DP  RH WIND       PRES   REMARKS
NORFOLK        CLOUDY    31  24  75 SW12      29.94R WCI  22
ALBION         MOSUNNY   30  24  79 W5        29.97F WCI  25
BLAIR          MOSUNNY   36  26  67 SW13      30.01S WCI  27
COLUMBUS       CLOUDY    33  25  72 SW13      30.00F WCI  24
FREMONT        CLOUDY    34  26  70 SW10      30.02S WCI  26
TEKAMAH        CLOUDY    35  24  64 SW14      30.01S WCI  26
WAYNE          CLOUDY    34  24  66 SW8       29.95S WCI  27
$$

NEZ050>053-065>068-078-088>093-151700-
SOUTHEAST NEBRASKA

CITY           SKY/WX    TMP DP  RH WIND       PRES   REMARKS
LINCOLN        SUNNY     36  25  64 SW8G18    30.06F WCI  30
OMAHA EPPLEY   PTSUNNY   38  24  57 SW9       30.03  WCI  31
BEATRICE       SUNNY     35  26  70 SW12      30.08F WCI  27
FALLS CITY     SUNNY     37  24  59 W12       30.11F WCI  29
NEBRASKA CITY  CLOUDY    35  26  69 W14       30.08S WCI  26
PLATTSMOUTH    CLOUDY    36  25  64 SW13      30.04F WCI  28
$$

NEZ044-045-051>053-067-151700-
OMAHA AREA

CITY           SKY/WX    TMP DP  RH WIND       PRES   REMARKS
OMAHA EPPLEY   PTSUNNY   38  24  57 SW9       30.03  WCI  31
BLAIR          MOSUNNY   36  26  67 SW13      30.01S WCI  27
FREMONT        CLOUDY    34  26  70 SW10      30.02S WCI  26
MILLARD        MOSUNNY   37  25  64 SW8       30.04S WCI  30
OFFUTT AFB     PTSUNNY   37  23  58 SW9       30.04S WCI  30
PLATTSMOUTH    CLOUDY    36  25  64 SW13      30.04F WCI  28
WAHOO          FAIR      35  25  67 SW14      30.02F WCI  26
$$



USA.gov is the U.S. government's official web portal to all federal, state and local government web resources and services.